DAN378 EDDH-LQMO

Flight info

Callsign DAN378
Flight time 1h 55m
Altitude 29000
Route AMLUH2G AMLUH M852 POVEL Z94 GALMA T703 NAMUB DCT ARMUT T703 TIVDA DCT SIMBA DCT BERTA DCT DOL DCT NEMEK DCT VRANA
Aircraft B463/M-SDFGIRWY/LB1

Departure

Time 2026-05-01 09:12
Airport Hamburg Helmut Schmidt Airport (EDDH)

Arrival

Time 2026-05-01 11:07
Airport Mostar International Airport (LQMO)
Time Latitude Longitude Altitude Speed Heading
2026-05-01 08:49 53.62774 10.00275 48 ft 0 kts 63°
2026-05-01 09:05 53.62773 10.00272 75 ft 2 kts 63°
2026-05-01 09:06 53.62767 10.00253 48 ft 2 kts 63°
2026-05-01 09:06 53.62762 10.00234 45 ft 2 kts 63°
2026-05-01 09:06 53.62756 10.00215 43 ft 2 kts 63°
2026-05-01 09:06 53.62750 10.00196 46 ft 2 kts 58°
2026-05-01 09:07 53.62742 10.00179 45 ft 2 kts 38°
2026-05-01 09:07 53.62730 10.00170 43 ft 2 kts 355°
2026-05-01 09:07 53.62720 10.00177 46 ft 0 kts 317°
2026-05-01 09:09 53.62724 10.00172 45 ft 2 kts 327°
2026-05-01 09:10 53.62741 10.00157 48 ft 4 kts 331°
2026-05-01 09:10 53.62784 10.00123 48 ft 9 kts 335°
2026-05-01 09:10 53.62839 10.00070 48 ft 8 kts 313°
2026-05-01 09:10 53.62849 9.99993 48 ft 6 kts 254°
2026-05-01 09:11 53.62829 9.99901 46 ft 9 kts 249°
2026-05-01 09:11 53.62816 9.99801 45 ft 8 kts 298°
2026-05-01 09:11 53.62916 9.99703 45 ft 42 kts 333°
2026-05-01 09:11 53.63388 9.99297 45 ft 108 kts 333°
2026-05-01 09:12 53.64213 9.98584 93 ft 151 kts 333°
2026-05-01 09:12 53.65131 9.97778 693 ft 146 kts 330°
2026-05-01 09:12 53.66019 9.96995 1334 ft 143 kts 331°
2026-05-01 09:12 53.66899 9.96222 1962 ft 143 kts 332°
2026-05-01 09:13 53.67833 9.95433 2347 ft 166 kts 333°
2026-05-01 09:13 53.69022 9.94765 2746 ft 196 kts 355°
2026-05-01 09:13 53.70482 9.94649 3036 ft 221 kts 358°
2026-05-01 09:13 53.72054 9.94808 3642 ft 232 kts 19°
2026-05-01 09:14 53.73363 9.96373 4240 ft 235 kts 57°
2026-05-01 09:14 53.73860 9.97990 4644 ft 235 kts 71°
2026-05-01 09:14 53.74423 10.00591 5333 ft 236 kts 73°
2026-05-01 09:14 53.74530 10.03324 5914 ft 235 kts 107°
2026-05-01 09:15 53.73818 10.05793 6501 ft 234 kts 121°
2026-05-01 09:15 53.73073 10.08249 7075 ft 236 kts 109°
2026-05-01 09:15 53.72486 10.10830 7619 ft 238 kts 120°
2026-05-01 09:15 53.71561 10.13178 8221 ft 242 kts 127°
2026-05-01 09:16 53.70439 10.15340 8827 ft 246 kts 134°
2026-05-01 09:16 53.69147 10.17262 9467 ft 250 kts 141°
2026-05-01 09:16 53.67678 10.18975 9817 ft 265 kts 147°
2026-05-01 09:17 53.64222 10.21878 10486 ft 289 kts 156°
2026-05-01 09:17 53.62328 10.23084 10776 ft 298 kts 159°
2026-05-01 09:17 53.58274 10.25224 11394 ft 312 kts 161°
2026-05-01 09:18 53.56168 10.26225 11869 ft 314 kts 162°
2026-05-01 09:18 53.51915 10.28145 12804 ft 319 kts 162°
2026-05-01 09:19 53.47602 10.30095 13712 ft 322 kts 162°
2026-05-01 09:19 53.45428 10.31073 14145 ft 324 kts 162°
2026-05-01 09:19 53.43240 10.32061 14538 ft 326 kts 162°
2026-05-01 09:20 53.38843 10.34054 15245 ft 331 kts 162°
2026-05-01 09:20 53.34361 10.36039 15908 ft 336 kts 163°
2026-05-01 09:21 53.29823 10.38073 16562 ft 340 kts 163°
2026-05-01 09:21 53.27531 10.39087 16873 ft 342 kts 163°
2026-05-01 09:21 53.22899 10.41141 17489 ft 346 kts 163°
2026-05-01 09:22 53.18226 10.43255 18101 ft 350 kts 163°
2026-05-01 09:22 53.13522 10.45325 18715 ft 354 kts 163°
2026-05-01 09:23 53.11136 10.46373 18993 ft 355 kts 163°
2026-05-01 09:23 53.06325 10.48514 19561 ft 358 kts 163°
2026-05-01 09:24 53.01484 10.50657 20112 ft 362 kts 163°
2026-05-01 09:24 52.99051 10.51728 20384 ft 363 kts 163°
2026-05-01 09:24 52.94139 10.53888 20923 ft 366 kts 163°
2026-05-01 09:25 52.89193 10.56071 21476 ft 370 kts 163°
2026-05-01 09:25 52.84225 10.58264 21991 ft 373 kts 163°
2026-05-01 09:26 52.81716 10.59394 22252 ft 374 kts 163°
2026-05-01 09:26 52.76654 10.61650 22751 ft 378 kts 163°
2026-05-01 09:26 52.74102 10.62783 23008 ft 379 kts 163°
2026-05-01 09:27 52.69010 10.65041 23510 ft 382 kts 163°
2026-05-01 09:27 52.66437 10.66183 23725 ft 384 kts 163°
2026-05-01 09:27 52.63849 10.67333 23975 ft 386 kts 163°
2026-05-01 09:28 52.61246 10.68490 24178 ft 387 kts 163°
2026-05-01 09:28 52.58636 10.69649 24378 ft 388 kts 163°
2026-05-01 09:28 52.56025 10.70808 24567 ft 389 kts 163°
2026-05-01 09:28 52.53432 10.71959 24771 ft 390 kts 163°
2026-05-01 09:29 52.48166 10.74289 25145 ft 393 kts 163°
2026-05-01 09:29 52.45517 10.75460 25336 ft 394 kts 163°
2026-05-01 09:30 52.40206 10.77807 25714 ft 396 kts 163°
2026-05-01 09:30 52.37520 10.78878 25883 ft 398 kts 167°
2026-05-01 09:30 52.32009 10.80214 26233 ft 402 kts 172°
2026-05-01 09:31 52.29220 10.80641 26410 ft 403 kts 173°
2026-05-01 09:31 52.26420 10.81025 26561 ft 404 kts 174°
2026-05-01 09:31 52.20832 10.81733 26887 ft 406 kts 174°
2026-05-01 09:32 52.18001 10.82085 27039 ft 407 kts 174°
2026-05-01 09:32 52.12441 10.83756 27338 ft 407 kts 159°
2026-05-01 09:32 52.09807 10.85444 27491 ft 407 kts 154°
2026-05-01 09:33 52.07254 10.87421 27640 ft 407 kts 151°
2026-05-01 09:33 52.04764 10.89533 27784 ft 408 kts 150°
2026-05-01 09:33 51.99761 10.93957 28066 ft 410 kts 149°
2026-05-01 09:34 51.97259 10.96192 28221 ft 411 kts 149°
2026-05-01 09:34 51.94738 10.98404 28357 ft 412 kts 150°
2026-05-01 09:34 51.89668 11.02808 28637 ft 414 kts 150°
2026-05-01 09:35 51.87128 11.05009 28753 ft 415 kts 150°
2026-05-01 09:35 51.82010 11.09421 29037 ft 417 kts 150°
2026-05-01 09:35 51.79441 11.11599 29165 ft 418 kts 151°
2026-05-01 09:36 51.76868 11.13786 29337 ft 417 kts 150°
2026-05-01 09:36 51.71751 11.18168 29441 ft 422 kts 150°
2026-05-01 09:37 51.66492 11.22612 29457 ft 429 kts 150°
2026-05-01 09:37 51.58529 11.29374 29455 ft 433 kts 151°
2026-05-01 09:38 51.50518 11.36151 29454 ft 434 kts 150°
2026-05-01 09:39 51.42528 11.42867 29449 ft 434 kts 150°
2026-05-01 09:39 51.37158 11.47324 29450 ft 435 kts 150°
2026-05-01 09:40 51.29111 11.54049 29460 ft 435 kts 150°
2026-05-01 09:41 51.23770 11.58482 29452 ft 435 kts 150°
2026-05-01 09:41 51.15691 11.65156 29447 ft 436 kts 152°
2026-05-01 09:42 51.09898 11.68132 29455 ft 438 kts 164°
2026-05-01 09:43 50.98133 11.73275 29445 ft 439 kts 161°
2026-05-01 09:43 50.92302 11.76115 29446 ft 439 kts 161°
2026-05-01 09:44 50.83519 11.80309 29441 ft 440 kts 161°
2026-05-01 09:45 50.77656 11.83133 29437 ft 440 kts 161°
2026-05-01 09:45 50.68883 11.87290 29441 ft 440 kts 161°
2026-05-01 09:46 50.63019 11.90108 29445 ft 441 kts 161°
2026-05-01 09:46 50.57122 11.92873 29444 ft 441 kts 161°
2026-05-01 09:47 50.51251 11.95701 29435 ft 442 kts 161°
2026-05-01 09:47 50.45358 11.98443 29435 ft 442 kts 161°
2026-05-01 09:48 50.39501 12.01224 29433 ft 442 kts 161°
2026-05-01 09:48 50.33597 12.03971 29427 ft 442 kts 161°
2026-05-01 09:49 50.27692 12.06760 29428 ft 443 kts 161°
2026-05-01 09:49 50.21789 12.09496 29418 ft 442 kts 161°
2026-05-01 09:50 50.15918 12.12257 29434 ft 443 kts 161°
2026-05-01 09:50 50.10004 12.14981 29425 ft 443 kts 160°
2026-05-01 09:51 50.04083 12.17732 29434 ft 443 kts 161°
2026-05-01 09:51 49.98164 12.20486 29433 ft 443 kts 160°
2026-05-01 09:52 49.92280 12.23180 29434 ft 444 kts 160°
2026-05-01 09:52 49.86352 12.25907 29432 ft 444 kts 161°
2026-05-01 09:53 49.80418 12.28631 29424 ft 445 kts 160°
2026-05-01 09:53 49.74498 12.31445 29422 ft 443 kts 156°
2026-05-01 09:54 49.69147 12.35879 29429 ft 437 kts 142°
2026-05-01 09:54 49.64231 12.41424 29450 ft 436 kts 139°
2026-05-01 09:55 49.59440 12.47163 29437 ft 436 kts 139°
2026-05-01 09:55 49.54626 12.52880 29436 ft 437 kts 139°
2026-05-01 09:56 49.49796 12.58486 29431 ft 438 kts 139°
2026-05-01 09:56 49.44813 12.63891 29430 ft 441 kts 148°
2026-05-01 09:57 49.39005 12.67179 29436 ft 447 kts 162°
2026-05-01 09:57 49.32898 12.69163 29434 ft 449 kts 166°
2026-05-01 09:58 49.26768 12.70868 29432 ft 450 kts 166°
2026-05-01 09:58 49.20601 12.72646 29432 ft 450 kts 166°
2026-05-01 09:59 49.14430 12.74504 29431 ft 451 kts 165°
2026-05-01 09:59 49.08296 12.76352 29426 ft 452 kts 165°
2026-05-01 10:00 49.02121 12.78203 29422 ft 452 kts 165°
2026-05-01 10:00 48.95938 12.80050 29424 ft 453 kts 165°
2026-05-01 10:01 48.89745 12.81894 29419 ft 453 kts 165°
2026-05-01 10:01 48.83552 12.83729 29418 ft 453 kts 165°
2026-05-01 10:02 48.77405 12.85594 29413 ft 453 kts 165°
2026-05-01 10:02 48.71206 12.87434 29414 ft 454 kts 165°
2026-05-01 10:03 48.65006 12.89262 29418 ft 454 kts 165°
2026-05-01 10:03 48.58803 12.91130 29410 ft 454 kts 165°
2026-05-01 10:04 48.53646 12.92642 29412 ft 454 kts 165°
2026-05-01 10:04 48.47432 12.94479 29431 ft 455 kts 165°
2026-05-01 10:05 48.40205 12.96599 29419 ft 455 kts 165°
2026-05-01 10:05 48.34991 12.98153 29418 ft 456 kts 165°
2026-05-01 10:06 48.28762 12.99977 29418 ft 456 kts 165°
2026-05-01 10:06 48.22732 13.02421 29409 ft 448 kts 152°
2026-05-01 10:07 48.17254 13.06752 29406 ft 442 kts 143°
2026-05-01 10:07 48.12061 13.11688 29415 ft 441 kts 141°
2026-05-01 10:08 48.04323 13.19101 29397 ft 442 kts 142°
2026-05-01 10:09 47.99096 13.23959 29393 ft 443 kts 142°
2026-05-01 10:09 47.93859 13.28805 29388 ft 442 kts 142°
2026-05-01 10:10 47.88625 13.33683 29386 ft 443 kts 142°
2026-05-01 10:10 47.80800 13.40937 29389 ft 443 kts 142°
2026-05-01 10:11 47.75540 13.45767 29394 ft 443 kts 142°
2026-05-01 10:11 47.70329 13.50564 29396 ft 443 kts 142°
2026-05-01 10:12 47.65072 13.55399 29402 ft 444 kts 142°
2026-05-01 10:13 47.57166 13.62633 29400 ft 446 kts 142°
2026-05-01 10:13 47.51904 13.67398 29396 ft 446 kts 142°
2026-05-01 10:14 47.43968 13.74613 29331 ft 446 kts 142°
2026-05-01 10:14 47.38706 13.79413 29386 ft 444 kts 142°
2026-05-01 10:15 47.33419 13.84159 29355 ft 444 kts 142°
2026-05-01 10:15 47.28149 13.88927 29369 ft 443 kts 142°
2026-05-01 10:16 47.22916 13.93603 29387 ft 442 kts 142°
2026-05-01 10:17 47.15029 14.00707 29386 ft 442 kts 142°
2026-05-01 10:17 47.07109 14.07760 29406 ft 444 kts 142°
2026-05-01 10:18 46.99201 14.14791 29406 ft 446 kts 142°
2026-05-01 10:19 46.93897 14.19501 29413 ft 446 kts 142°
2026-05-01 10:19 46.88588 14.24208 29391 ft 446 kts 142°
2026-05-01 10:20 46.80618 14.31266 29418 ft 446 kts 142°
2026-05-01 10:20 46.75306 14.35967 29420 ft 446 kts 142°
2026-05-01 10:21 46.67378 14.42979 29403 ft 446 kts 142°
2026-05-01 10:22 46.59416 14.49997 29415 ft 446 kts 142°
2026-05-01 10:23 46.51406 14.56953 29421 ft 447 kts 143°
2026-05-01 10:23 46.43150 14.63241 29400 ft 455 kts 153°
2026-05-01 10:24 46.30936 14.68551 29404 ft 459 kts 159°
2026-05-01 10:25 46.18679 14.73569 29386 ft 459 kts 158°
2026-05-01 10:26 46.12552 14.76163 29382 ft 458 kts 157°
2026-05-01 10:26 46.06788 14.79709 29393 ft 446 kts 143°
2026-05-01 10:27 46.01622 14.84600 29396 ft 442 kts 138°
2026-05-01 10:28 45.94215 14.92396 29387 ft 442 kts 137°
2026-05-01 10:28 45.86726 15.00135 29366 ft 442 kts 138°
2026-05-01 10:29 45.79216 15.07774 29400 ft 442 kts 138°
2026-05-01 10:30 45.69170 15.17958 29386 ft 443 kts 139°
2026-05-01 10:31 45.59106 15.28128 29395 ft 442 kts 138°
2026-05-01 10:32 45.52103 15.36455 29385 ft 436 kts 131°
2026-05-01 10:33 45.43124 15.48145 29398 ft 437 kts 131°
2026-05-01 10:34 45.36350 15.56815 29391 ft 439 kts 132°
2026-05-01 10:34 45.31787 15.62590 29393 ft 439 kts 132°
2026-05-01 10:35 45.24931 15.71243 29380 ft 440 kts 132°
2026-05-01 10:35 45.20361 15.77028 29386 ft 440 kts 133°
2026-05-01 10:36 45.13494 15.85673 29383 ft 441 kts 133°
2026-05-01 10:37 45.08901 15.91476 29386 ft 442 kts 133°
2026-05-01 10:37 45.02008 16.00088 29378 ft 443 kts 134°
2026-05-01 10:38 44.97371 16.05844 29378 ft 444 kts 134°
2026-05-01 10:38 44.92733 16.11617 29385 ft 445 kts 134°
2026-05-01 10:39 44.88088 16.17439 29378 ft 445 kts 134°
2026-05-01 10:39 44.83481 16.23202 29376 ft 446 kts 134°
2026-05-01 10:40 44.78793 16.28976 29365 ft 447 kts 135°
2026-05-01 10:40 44.74112 16.34757 29384 ft 448 kts 135°
2026-05-01 10:41 44.69429 16.40571 29371 ft 449 kts 135°
2026-05-01 10:42 44.62334 16.49226 29362 ft 451 kts 136°
2026-05-01 10:42 44.57597 16.55028 29358 ft 452 kts 136°
2026-05-01 10:43 44.52857 16.60856 29355 ft 453 kts 136°
2026-05-01 10:43 44.48135 16.66643 29349 ft 454 kts 136°
2026-05-01 10:44 44.43326 16.72452 29350 ft 456 kts 137°
2026-05-01 10:44 44.38525 16.78261 29344 ft 457 kts 137°
2026-05-01 10:45 44.33714 16.84108 29339 ft 458 kts 137°
2026-05-01 10:45 44.28913 16.89962 29346 ft 459 kts 137°
2026-05-01 10:46 44.24093 16.95750 29342 ft 460 kts 138°
2026-05-01 10:46 44.19237 17.01597 29335 ft 461 kts 137°
2026-05-01 10:47 44.14364 17.07455 29327 ft 462 kts 139°
2026-05-01 10:47 44.09469 17.13263 29324 ft 463 kts 139°
2026-05-01 10:48 44.04613 17.19058 29318 ft 463 kts 139°
2026-05-01 10:48 43.99758 17.24901 28907 ft 456 kts 139°
2026-05-01 10:48 43.97336 17.27778 28090 ft 456 kts 140°
2026-05-01 10:49 43.94932 17.30622 27505 ft 450 kts 140°
2026-05-01 10:49 43.92559 17.33430 26885 ft 445 kts 140°
2026-05-01 10:49 43.90218 17.36207 26275 ft 441 kts 140°
2026-05-01 10:49 43.87902 17.38966 25662 ft 437 kts 140°
2026-05-01 10:50 43.85608 17.41700 25093 ft 433 kts 140°
2026-05-01 10:50 43.83349 17.44360 24533 ft 429 kts 141°
2026-05-01 10:50 43.81073 17.47036 23997 ft 425 kts 141°
2026-05-01 10:50 43.78834 17.49681 23378 ft 422 kts 141°
2026-05-01 10:51 43.76556 17.52196 22754 ft 417 kts 146°
2026-05-01 10:51 43.74141 17.54371 22164 ft 412 kts 151°
2026-05-01 10:51 43.71643 17.56267 21583 ft 408 kts 155°
2026-05-01 10:51 43.69113 17.57995 21018 ft 404 kts 156°
2026-05-01 10:52 43.66574 17.59631 20483 ft 401 kts 157°
2026-05-01 10:52 43.64048 17.61224 19954 ft 398 kts 157°
2026-05-01 10:52 43.61541 17.62811 19452 ft 395 kts 156°
2026-05-01 10:52 43.59038 17.64340 18934 ft 391 kts 161°
2026-05-01 10:53 43.56455 17.65286 18413 ft 387 kts 173°
2026-05-01 10:53 43.53788 17.65620 17818 ft 382 kts 180°
2026-05-01 10:53 43.51145 17.65589 17276 ft 377 kts 185°
2026-05-01 10:53 43.48549 17.65345 16750 ft 370 kts 187°
2026-05-01 10:54 43.46014 17.64987 16212 ft 363 kts 188°
2026-05-01 10:54 43.44354 17.64721 15836 ft 359 kts 189°
2026-05-01 10:54 43.41888 17.64311 15332 ft 354 kts 189°
2026-05-01 10:54 43.39453 17.63905 14811 ft 350 kts 189°
2026-05-01 10:55 43.37054 17.63500 14300 ft 346 kts 188°
2026-05-01 10:55 43.34671 17.63119 13792 ft 343 kts 188°
2026-05-01 10:55 43.32311 17.62750 13275 ft 340 kts 187°
2026-05-01 10:55 43.29967 17.62779 12723 ft 338 kts 169°
2026-05-01 10:56 43.27706 17.63602 12213 ft 335 kts 162°
2026-05-01 10:56 43.25503 17.64598 11727 ft 332 kts 160°
2026-05-01 10:56 43.23342 17.65690 11261 ft 329 kts 159°
2026-05-01 10:56 43.21215 17.66821 10777 ft 327 kts 158°
2026-05-01 10:57 43.19100 17.67964 10349 ft 325 kts 158°
2026-05-01 10:57 43.17034 17.69093 9914 ft 322 kts 158°
2026-05-01 10:57 43.14961 17.70229 9442 ft 320 kts 157°
2026-05-01 10:57 43.12897 17.71336 8976 ft 317 kts 160°
2026-05-01 10:58 43.10770 17.72003 8704 ft 309 kts 171°
2026-05-01 10:58 43.08671 17.72300 8521 ft 298 kts 175°
2026-05-01 10:58 43.06625 17.72487 8300 ft 290 kts 176°
2026-05-01 10:58 43.04646 17.72693 8059 ft 275 kts 166°
2026-05-01 10:59 43.03032 17.73793 7742 ft 250 kts 131°
2026-05-01 10:59 43.02195 17.75683 7525 ft 217 kts 99°
2026-05-01 10:59 43.01955 17.77622 7372 ft 200 kts 91°
2026-05-01 10:59 43.01841 17.79488 6961 ft 194 kts 88°
2026-05-01 11:00 43.01806 17.81301 6535 ft 193 kts 86°
2026-05-01 11:00 43.01815 17.83140 6093 ft 193 kts 84°
2026-05-01 11:00 43.02219 17.84796 5564 ft 182 kts 48°
2026-05-01 11:00 43.03310 17.85582 5139 ft 178 kts 16°
2026-05-01 11:01 43.04534 17.85876 4601 ft 179 kts 11°
2026-05-01 11:01 43.05745 17.85976 4296 ft 169 kts
2026-05-01 11:01 43.06873 17.85986 4210 ft 156 kts
2026-05-01 11:01 43.07946 17.85962 4131 ft 155 kts
2026-05-01 11:02 43.08987 17.85925 4042 ft 142 kts
2026-05-01 11:02 43.09952 17.85877 3939 ft 137 kts
2026-05-01 11:02 43.10916 17.85812 3804 ft 141 kts
2026-05-01 11:02 43.11894 17.85780 3661 ft 143 kts
2026-05-01 11:03 43.12920 17.85773 3439 ft 151 kts
2026-05-01 11:03 43.13983 17.85775 3192 ft 154 kts
2026-05-01 11:03 43.15048 17.85756 2900 ft 152 kts
2026-05-01 11:03 43.16102 17.85726 2674 ft 150 kts
2026-05-01 11:04 43.17123 17.85689 2360 ft 140 kts
2026-05-01 11:04 43.18054 17.85656 2063 ft 131 kts
2026-05-01 11:04 43.18957 17.85639 1988 ft 129 kts
2026-05-01 11:04 43.19831 17.85634 1815 ft 123 kts
2026-05-01 11:05 43.20688 17.85612 1639 ft 125 kts
2026-05-01 11:05 43.21561 17.85749 1637 ft 126 kts 14°
2026-05-01 11:05 43.22418 17.86046 1565 ft 126 kts 15°
2026-05-01 11:05 43.23264 17.86319 1414 ft 122 kts 15°
2026-05-01 11:06 43.24088 17.86479 1195 ft 124 kts
2026-05-01 11:06 43.24955 17.86360 970 ft 129 kts 356°
2026-05-01 11:06 43.25809 17.85955 612 ft 132 kts 339°
2026-05-01 11:07 43.27365 17.85098 202 ft 108 kts 339°
2026-05-01 11:07 43.27972 17.84763 171 ft 78 kts 339°
2026-05-01 11:07 43.28321 17.84573 174 ft 43 kts 338°
2026-05-01 11:07 43.28568 17.84436 174 ft 34 kts 338°
2026-05-01 11:08 43.28765 17.84326 174 ft 27 kts 338°
2026-05-01 11:08 43.28863 17.84223 175 ft 13 kts 261°